Location: Hazelmere
(55.0390°N, 119.7293°W)
Time: 04:38:36
(UTC+00:00)

Envisat - Visible Passes

Search period start: 29 May 2023 00:00
Search period end: 08 June 2023 00:00
Orbit: 763 x 765 km, 98.2° (Epoch: 28 May)

Date Brightness Start Highest point End Pass type
(mag) Time Alt. Az. Time Alt. Az. Time Alt. Az.
29 May 5.5 10:36:47 10° NE 10:40:08 17° E 10:43:27 10° SE visible
01 Jun 5.6 10:24:52 10° NE 10:27:31 14° E 10:30:09 10° ESE visible
04 Jun 5.8 10:13:22 10° ENE 10:14:52 11° E 10:16:22 10° E visible
